Rome, OR

1:21 PM MDT on July 24, 2017 (GMT -0600)
Rome State

Weather History for KREO - January, 2013

Change the Weather History Date:

Monday, January 28, 2013

  Actual Average Record
Temperature  
Mean Temperature 26 °F 30 °F  
Max Temperature 34 °F 40 °F 56 °F (1998)
Min Temperature 18 °F 21 °F -6 °F (1957)
Degree Days  
Heating Degree Days 39 35  
Month to date heating degree days 1361 1000  
Since 1 July heating degree days 3718 3747  
Cooling Degree Days 0 0  
Month to date cooling degree days 0 0  
Year to date cooling degree days 0 0  
Moisture  
Dew Point 23 °F    
Average Humidity 78    
Maximum Humidity 92    
Minimum Humidity 64    
Precipitation  
Precipitation 0.03 in 0.02 in 0.77 in (1965)
Month to date precipitation 0.55 0.59  
Year to date precipitation 0.55 0.59  
Sea Level Pressure  
Sea Level Pressure 30.05 in    
Wind  
Wind Speed 10 mph (SSW)    
Max Wind Speed 17 mph    
Max Gust Speed 23 mph    
T = Trace of Precipitation, MM = Missing Value Source: NWS Daily Summary

Daily Weather History Graph

Daily Weather History Graph

Search for Another Location

Airport or City:

Trip Planner

Search our weather history database for the weather conditions in past years. The results will help you decide how hot, cold, wet, or windy it might be!

Date:

Astronomy

Jan. 28, 2013 Rise Set
Actual Time 7:09 AM PST 5:00 PM PST
Civil Twilight 6:39 AM PST 5:30 PM PST
Nautical Twilight 6:05 AM PST 6:04 PM PST
Astronomical Twilight 5:31 AM PST 6:37 PM PST
Moon 7:03 PM PST (1/28) 7:34 AM PST (1/28)
Length of Visible Light 10h 51m
Length of Day
9h 51m
Full, 97% of the Moon is Illuminated
Jan 28
Full
Feb 3
Last Quarter
Feb 9
New
Feb 17
First Quarter
Feb 25
Full

Hourly Weather History & Observations

Time (PST) Temp. Windchill Dew Point Humidity Pressure Visibility Wind Dir Wind Speed Gust Speed Precip Events Conditions
12:52 AM 19.0 °F 8.2 °F 14.0 °F 81% 30.04 in - SSE 9.2 mph - N/A   Unknown
1:52 AM 19.0 °F 8.2 °F 14.0 °F 81% 30.04 in - South 9.2 mph - N/A   Unknown
2:52 AM 19.0 °F 10.0 °F 14.0 °F 81% 30.03 in - SSE 6.9 mph - N/A   Unknown
3:52 AM 23.0 °F 14.7 °F 16.0 °F 74% 30.03 in - South 6.9 mph - N/A   Unknown
4:52 AM 24.1 °F - 19.0 °F 81% 30.02 in - Calm Calm - N/A   Unknown
5:52 AM 26.1 °F 20.5 °F 21.0 °F 81% 30.03 in - SSW 4.6 mph - N/A   Unknown
6:52 AM 27.0 °F 18.7 °F 21.9 °F 81% 30.04 in - SW 8.1 mph - N/A   Unknown
7:52 AM 28.0 °F 18.6 °F 23.0 °F 81% 30.05 in - SSW 10.4 mph - N/A   Unknown
8:52 AM 30.0 °F 20.0 °F 24.1 °F 79% 30.06 in - SSW 12.7 mph - N/A   Unknown
9:52 AM 30.9 °F 21.7 °F 23.0 °F 72% 30.08 in - WSW 11.5 mph - N/A   Unknown
10:52 AM 32.0 °F 24.8 °F 24.1 °F 73% 30.10 in - WSW 8.1 mph - N/A   Unknown
11:52 AM 34.0 °F 25.0 °F 23.0 °F 64% 30.09 in - West 12.7 mph - N/A   Unknown
12:52 PM 33.1 °F 25.5 °F 23.0 °F 66% 30.08 in - West 9.2 mph - N/A   Unknown
1:52 PM 32.0 °F 23.0 °F 26.1 °F 79% 30.06 in - SW 11.5 mph - N/A   Unknown
2:52 PM 32.0 °F 23.6 °F 25.0 °F 75% 30.06 in - SSW 10.4 mph - N/A   Unknown
3:52 PM 32.0 °F 24.2 °F 26.1 °F 79% 30.05 in - SW 9.2 mph - N/A   Unknown
4:52 PM 30.9 °F 22.2 °F 26.1 °F 82% 30.06 in - WSW 10.4 mph - N/A   Unknown
5:52 PM 30.9 °F 21.2 °F 27.0 °F 85% 30.05 in - SW 12.7 mph - N/A   Unknown
6:52 PM 30.9 °F 22.8 °F 27.0 °F 85% 30.05 in - SSW 9.2 mph - N/A   Unknown
7:52 PM 30.9 °F 22.8 °F 28.0 °F 89% 30.04 in - SW 9.2 mph - N/A   Unknown
8:52 PM 30.9 °F 20.2 °F 28.0 °F 89% 30.02 in - SSW 15.0 mph 21.9 mph 0.02 in   Unknown
9:52 PM 30.9 °F 20.7 °F 28.0 °F 89% 30.02 in - SSW 13.8 mph - 0.01 in   Unknown
10:52 PM 30.9 °F 21.2 °F 28.0 °F 89% 30.02 in - SSW 12.7 mph - N/A   Unknown
11:52 PM 30.9 °F 22.8 °F 28.0 °F 89% 30.02 in - SSW 9.2 mph - N/A   Unknown